SL-12 DEB

Satellite information

Favourite Embed

Satellite Type and Status

DEBRISIN ORBIT

Key statistics

Satellite SL-12 DEB at a glance.

Uptime

6568

Days in orbit

Revolutions

≈ 4.4

Per day

Orbit

HEO

HEO

Inclination

65.1

Latest

Satellite identification and parameters

Extended collection of information and parameters for SL-12 DEB.

Object identification

Identified? True

Debris? True

Object name: SL-12 DEB

International designator: 2007-052N

Object number (NORAD): 41681

Object ID (CCSDS): 41681

Country: COMMONWEALTH OF INDEPENDENT STATES (CIS)

Current information (Y/N): Y

RCS size: MEDIUM

Orbital parameters

Period: 328.041 minutes

Inclination: 65.061 deg

SMA: 15755.971 km

Apoapsis: 18320.95 km

Periapsis: 434.723 km

RAAN: 278.6553 deg

Eccentricy: 0.56760155

Argument of periapsis: 210.3225 deg

Mean anomaly: 99.0465 deg

Mean motion: 4.38970147 rev/day

Mean motion (dot): 0.00000544 rev/day2

B* drag term: 0.00063319824 1/REarth

Two-line elements (TLE)

Creation date: Oct. 11, 2025, 2:58 a.m.

Reference frame: TEME

Reference center: EARTH

Epoch: Oct. 10, 2025, 8:05 a.m. UTC

TLE line 0: 0 SL-12 DEB

TLE line 1: 1 41681U 07052N 25283.33698474 .00000544 00000-0 63320-3 0 9998

TLE line 2: 2 41681 65.0610 278.6553 5676016 210.3225 99.0465 4.38970147177979

Live tracking on map

Real-time ground track for satellite SL-12 DEB.

In-orbit conjunctions

A list of the most updated potential collisions computed for object SL-12 DEB.

Target Orbit TCA Probability of collision Miss distance Type
CZ-3B R/B MEO 2025-04-02 13:59:03 TBA 2486.0 (m) ROCKET BODY

Associated space launch

GLONASS navigation satellites

SL-12 DEB was lifted into orbit during the mission ‘Proton | Uragan-M 9 to 11’, on board a Proton space rocket.

The launch took place on Oct. 26, 2007, 7:35 a.m. from 81/24 (81P).

For more information about the launch, click the button.

Launch to space Proton | Uragan-M 9 to 11
Proton | Uragan-M 9 to 11

Agency: N/A

Status: Launch Successful

Launch date: Oct. 26, 2007, 7:35 a.m. UTC

Rocket: Proton

Launch pad: 81/24 (81P)

Location: Baikonur Cosmodrome, Republic of Kazakhstan

...

Latest news about this satellite

There are no fresh news available about this satellite. Check back as we update our databases every day.


Newsletter sign-up

Weekly statistics, charts and insights to help you stay on top of the space industry.